Terminal Aerodrome Forecast
Issued by NWS

Home | Current Version | Previous Version | Text Only | Print | Product List | Glossary On
Versions: 1 2 3 4 5 6 7 8 9 10 11 12 13 14 15 16 17 18 19
000
FTUS44 KLZK 190900 AAA
TAFHOT
TAF AMD
KHOT 190922Z 1909/2006 VRB03KT P6SM SCT012
      TEMPO 1911/1914 5SM BR BKN012
     FM191400 10003KT P6SM BKN025
     FM191800 12005KT P6SM SCT035
     FM200000 10004KT P6SM SCT250=

USA.gov is the U.S. government's official web portal to all federal, state and local government web resources and services.